Time,TemperatureF,DewpointF,PressureIn,WindDirection,WindDirectionDegrees,WindSpeedMPH,WindSpeedGustMPH,Humidity,HourlyPrecipIn,Conditions,Clouds,dailyrainin,SoftwareType,DateUTC
2013-01-23 00:03:00,20.7,12.5,30.39,ENE,57,5.0,-999.0,70,0.00,,,0.00,Wunderground v.1.15,2013-01-23 06:03:00,
2013-01-23 00:08:00,20.5,12.6,30.39,West,279,5.0,-999.0,71,0.00,,,0.00,Wunderground v.1.15,2013-01-23 06:08:00,
2013-01-23 00:13:00,20.3,10.4,30.39,NE,49,5.0,-999.0,65,0.00,,,0.00,Wunderground v.1.15,2013-01-23 06:13:00,
2013-01-23 00:18:00,20.1,10.2,30.39,NE,53,5.0,-999.0,65,0.00,,,0.00,Wunderground v.1.15,2013-01-23 06:18:00,
2013-01-23 00:23:00,20.0,10.8,30.39,NE,54,5.0,-999.0,67,0.00,,,0.00,Wunderground v.1.15,2013-01-23 06:23:00,
2013-01-23 00:28:00,19.9,11.7,30.38,NE,54,7.0,-999.0,70,0.00,,,0.00,Wunderground v.1.15,2013-01-23 06:28:00,
2013-01-23 00:33:00,19.8,11.6,30.39,NE,54,6.0,-999.0,70,0.00,,,0.00,Wunderground v.1.15,2013-01-23 06:33:00,
2013-01-23 00:38:00,19.7,10.2,30.38,ENE,60,7.0,-999.0,66,0.00,,,0.00,Wunderground v.1.15,2013-01-23 06:38:00,
2013-01-23 00:43:00,19.7,10.2,30.38,ENE,68,9.0,-999.0,66,0.00,,,0.00,Wunderground v.1.15,2013-01-23 06:43:00,
2013-01-23 00:48:00,19.7,10.8,30.38,ENE,66,9.0,-999.0,68,0.00,,,0.00,Wunderground v.1.15,2013-01-23 06:48:00,
2013-01-23 00:53:00,19.8,10.9,30.38,ENE,63,9.0,-999.0,68,0.00,,,0.00,Wunderground v.1.15,2013-01-23 06:53:00,
2013-01-23 00:58:00,19.7,11.5,30.38,ENE,63,10.0,-999.0,70,0.00,,,0.00,Wunderground v.1.15,2013-01-23 06:58:00,
2013-01-23 01:03:00,19.7,11.5,30.38,West,279,10.0,-999.0,70,0.00,,,0.00,Wunderground v.1.15,2013-01-23 07:03:00,
2013-01-23 01:08:00,19.6,10.7,30.38,West,279,10.0,-999.0,68,0.00,,,0.00,Wunderground v.1.15,2013-01-23 07:08:00,
2013-01-23 01:13:00,19.6,10.7,30.38,ENE,69,10.0,-999.0,68,0.00,,,0.00,Wunderground v.1.15,2013-01-23 07:13:00,
2013-01-23 01:18:00,19.5,10.6,30.38,ENE,59,10.0,-999.0,68,0.00,,,0.00,Wunderground v.1.15,2013-01-23 07:18:00,
2013-01-23 01:23:00,19.5,10.6,30.38,ENE,66,10.0,-999.0,68,0.00,,,0.00,Wunderground v.1.15,2013-01-23 07:23:00,
2013-01-23 01:28:00,19.4,10.6,30.38,West,279,11.0,-999.0,68,0.00,,,0.00,Wunderground v.1.15,2013-01-23 07:28:00,
2013-01-23 01:33:00,19.4,10.2,30.38,West,279,10.0,-999.0,67,0.00,,,0.00,Wunderground v.1.15,2013-01-23 07:33:00,
2013-01-23 01:38:00,19.3,11.1,30.38,ENE,59,10.0,-999.0,70,0.00,,,0.00,Wunderground v.1.15,2013-01-23 07:38:00,
2013-01-23 01:43:00,19.3,10.1,30.38,West,279,10.0,-999.0,67,0.00,,,0.00,Wunderground v.1.15,2013-01-23 07:43:00,
2013-01-23 01:48:00,19.2,10.7,30.38,ENE,57,10.0,-999.0,69,0.00,,,0.00,Wunderground v.1.15,2013-01-23 07:48:00,
2013-01-23 01:53:00,19.2,10.4,30.38,West,279,10.0,-999.0,68,0.00,,,0.00,Wunderground v.1.15,2013-01-23 07:53:00,
2013-01-23 01:58:00,19.2,10.4,30.39,West,279,10.0,-999.0,68,0.00,,,0.00,Wunderground v.1.15,2013-01-23 07:58:00,
2013-01-23 02:03:00,19.1,10.9,30.39,NE,53,10.0,-999.0,70,0.00,,,0.00,Wunderground v.1.15,2013-01-23 08:03:00,
2013-01-23 02:08:00,19.1,9.9,30.39,NE,55,11.0,-999.0,67,0.00,,,0.00,Wunderground v.1.15,2013-01-23 08:08:00,
2013-01-23 02:13:00,19.3,10.5,30.39,West,279,11.0,-999.0,68,0.00,,,0.00,Wunderground v.1.15,2013-01-23 08:13:00,
2013-01-23 02:18:00,19.4,9.9,30.39,NE,51,12.0,-999.0,66,0.00,,,0.00,Wunderground v.1.15,2013-01-23 08:18:00,
2013-01-23 02:23:00,19.5,10.3,30.38,ENE,59,12.0,-999.0,67,0.00,,,0.00,Wunderground v.1.15,2013-01-23 08:23:00,
2013-01-23 02:28:00,19.5,10.0,30.39,ENE,58,12.0,-999.0,66,0.00,,,0.00,Wunderground v.1.15,2013-01-23 08:28:00,
2013-01-23 02:33:00,19.5,10.3,30.39,ENE,59,12.0,-999.0,67,0.00,,,0.00,Wunderground v.1.15,2013-01-23 08:33:00,
2013-01-23 02:38:00,19.6,11.1,30.39,ENE,65,12.0,-999.0,69,0.00,,,0.00,Wunderground v.1.15,2013-01-23 08:38:00,
2013-01-23 02:43:00,19.5,10.6,30.39,ENE,59,12.0,-999.0,68,0.00,,,0.00,Wunderground v.1.15,2013-01-23 08:43:00,
2013-01-23 02:48:00,19.5,11.0,30.39,West,279,12.0,-999.0,69,0.00,,,0.00,Wunderground v.1.15,2013-01-23 08:48:00,
2013-01-23 02:53:00,19.5,11.3,30.38,ENE,64,12.0,-999.0,70,0.00,,,0.00,Wunderground v.1.15,2013-01-23 08:53:00,
2013-01-23 02:58:00,19.4,11.5,30.38,ENE,61,11.0,-999.0,71,0.00,,,0.00,Wunderground v.1.15,2013-01-23 08:58:00,
2013-01-23 03:03:00,19.3,11.7,30.38,ENE,62,12.0,-999.0,72,0.00,,,0.00,Wunderground v.1.15,2013-01-23 09:03:00,
2013-01-23 03:08:00,19.2,11.6,30.39,ENE,67,12.0,-999.0,72,0.00,,,0.00,Wunderground v.1.15,2013-01-23 09:08:00,
2013-01-23 03:13:00,19.1,11.9,30.38,West,279,11.0,-999.0,73,0.00,,,0.00,Wunderground v.1.15,2013-01-23 09:13:00,
2013-01-23 03:18:00,19.0,11.1,30.37,ENE,62,12.0,-999.0,71,0.00,,,0.00,Wunderground v.1.15,2013-01-23 09:18:00,
2013-01-23 03:23:00,18.9,11.7,30.37,ENE,61,12.0,-999.0,73,0.00,,,0.00,Wunderground v.1.15,2013-01-23 09:23:00,
2013-01-23 03:28:00,18.8,11.9,30.37,ENE,57,12.0,-999.0,74,0.00,,,0.00,Wunderground v.1.15,2013-01-23 09:28:00,
2013-01-23 03:33:00,18.6,11.7,30.37,ENE,67,12.0,-999.0,74,0.00,,,0.00,Wunderground v.1.15,2013-01-23 09:33:00,
2013-01-23 03:38:00,18.5,12.2,30.37,West,279,12.0,-999.0,76,0.00,,,0.00,Wunderground v.1.15,2013-01-23 09:38:00,
2013-01-23 03:43:00,18.4,11.5,30.37,ENE,60,12.0,-999.0,74,0.00,,,0.00,Wunderground v.1.15,2013-01-23 09:43:00,
2013-01-23 03:48:00,18.3,11.7,30.37,West,279,10.0,-999.0,75,0.00,,,0.00,Wunderground v.1.15,2013-01-23 09:48:00,
2013-01-23 03:53:00,18.3,12.0,30.37,ENE,74,13.0,-999.0,76,0.00,,,0.00,Wunderground v.1.15,2013-01-23 09:53:00,
2013-01-23 03:58:00,18.2,11.9,30.37,ENE,76,10.0,-999.0,76,0.00,,,0.00,Wunderground v.1.15,2013-01-23 09:58:00,
2013-01-23 04:03:00,18.2,11.9,30.36,ENE,76,12.0,-999.0,76,0.00,,,0.00,Wunderground v.1.15,2013-01-23 10:03:00,
2013-01-23 04:08:00,18.1,12.1,30.37,West,279,12.0,-999.0,77,0.00,,,0.00,Wunderground v.1.15,2013-01-23 10:08:00,
2013-01-23 04:13:00,18.1,12.1,30.37,East,84,10.0,-999.0,77,0.00,,,0.00,Wunderground v.1.15,2013-01-23 10:13:00,
2013-01-23 04:18:00,18.1,11.8,30.37,West,279,6.0,-999.0,76,0.00,,,0.00,Wunderground v.1.15,2013-01-23 10:18:00,
2013-01-23 04:23:00,18.1,12.1,30.37,East,84,7.0,-999.0,77,0.00,,,0.00,Wunderground v.1.15,2013-01-23 10:23:00,
2013-01-23 04:28:00,18.1,11.8,30.36,West,279,4.0,-999.0,76,0.00,,,0.00,Wunderground v.1.15,2013-01-23 10:28:00,
2013-01-23 04:33:00,18.2,11.9,30.37,East,92,2.0,-999.0,76,0.00,,,0.00,Wunderground v.1.15,2013-01-23 10:33:00,
2013-01-23 04:38:00,18.2,11.0,30.37,East,92,2.0,-999.0,73,0.00,,,0.00,Wunderground v.1.15,2013-01-23 10:38:00,
2013-01-23 04:43:00,18.3,11.7,30.36,East,90,1.0,-999.0,75,0.00,,,0.00,Wunderground v.1.15,2013-01-23 10:43:00,
2013-01-23 04:48:00,18.4,11.8,30.36,East,84,2.0,-999.0,75,0.00,,,0.00,Wunderground v.1.15,2013-01-23 10:48:00,
2013-01-23 04:53:00,18.4,11.8,30.36,East,93,1.0,-999.0,75,0.00,,,0.00,Wunderground v.1.15,2013-01-23 10:53:00,
2013-01-23 04:58:00,18.5,12.2,30.36,East,91,2.0,-999.0,76,0.00,,,0.00,Wunderground v.1.15,2013-01-23 10:58:00,
2013-01-23 05:03:00,18.5,11.6,30.36,East,84,1.0,-999.0,74,0.00,,,0.00,Wunderground v.1.15,2013-01-23 11:03:00,
2013-01-23 05:08:00,18.5,12.2,30.36,East,93,1.0,-999.0,76,0.00,,,0.00,Wunderground v.1.15,2013-01-23 11:08:00,
2013-01-23 05:13:00,18.5,12.2,30.36,East,95,1.0,-999.0,76,0.00,,,0.00,Wunderground v.1.15,2013-01-23 11:13:00,
2013-01-23 05:18:00,18.4,12.1,30.36,East,95,1.0,-999.0,76,0.00,,,0.00,Wunderground v.1.15,2013-01-23 11:18:00,
2013-01-23 05:23:00,18.4,12.1,30.36,East,86,1.0,-999.0,76,0.00,,,0.00,Wunderground v.1.15,2013-01-23 11:23:00,
2013-01-23 05:28:00,18.3,12.3,30.36,West,279,1.0,-999.0,77,0.00,,,0.00,Wunderground v.1.15,2013-01-23 11:28:00,
2013-01-23 05:33:00,18.2,11.6,30.35,East,90,1.0,-999.0,75,0.00,,,0.00,Wunderground v.1.15,2013-01-23 11:33:00,
2013-01-23 05:38:00,18.3,11.1,30.35,East,96,5.0,-999.0,73,0.00,,,0.00,Wunderground v.1.15,2013-01-23 11:38:00,
2013-01-23 05:43:00,18.4,12.1,30.35,East,94,3.0,-999.0,76,0.00,,,0.00,Wunderground v.1.15,2013-01-23 11:43:00,
2013-01-23 05:48:00,18.2,12.2,30.35,East,88,1.0,-999.0,77,0.00,,,0.00,Wunderground v.1.15,2013-01-23 11:48:00,
2013-01-23 05:53:00,18.1,11.5,30.35,East,88,2.0,-999.0,75,0.00,,,0.00,Wunderground v.1.15,2013-01-23 11:53:00,
2013-01-23 05:58:00,18.1,11.8,30.36,East,88,1.0,-999.0,76,0.00,,,0.00,Wunderground v.1.15,2013-01-23 11:58:00,
2013-01-23 06:03:00,18.0,11.7,30.35,East,90,1.0,-999.0,76,0.00,,,0.00,Wunderground v.1.15,2013-01-23 12:03:00,
2013-01-23 06:08:00,18.0,12.0,30.36,West,279,1.0,-999.0,77,0.00,,,0.00,Wunderground v.1.15,2013-01-23 12:08:00,
2013-01-23 06:13:00,17.9,11.6,30.36,East,87,1.0,-999.0,76,0.00,,,0.00,Wunderground v.1.15,2013-01-23 12:13:00,
2013-01-23 06:18:00,17.8,11.8,30.35,East,92,0.0,-999.0,77,0.00,,,0.00,Wunderground v.1.15,2013-01-23 12:18:00,
2013-01-23 06:23:00,17.8,12.1,30.35,West,279,1.0,-999.0,78,0.00,,,0.00,Wunderground v.1.15,2013-01-23 12:23:00,
2013-01-23 06:28:00,17.8,11.5,30.35,ESE,110,4.0,-999.0,76,0.00,,,0.00,Wunderground v.1.15,2013-01-23 12:28:00,
2013-01-23 06:33:00,17.9,11.9,30.35,ESE,104,4.0,-999.0,77,0.00,,,0.00,Wunderground v.1.15,2013-01-23 12:33:00,
2013-01-23 06:38:00,17.8,12.4,30.36,East,101,3.0,-999.0,79,0.00,,,0.00,Wunderground v.1.15,2013-01-23 12:38:00,
2013-01-23 06:43:00,17.7,11.7,30.36,ESE,102,4.0,-999.0,77,0.00,,,0.00,Wunderground v.1.15,2013-01-23 12:43:00,
2013-01-23 06:48:00,17.7,11.7,30.36,East,99,4.0,-999.0,77,0.00,,,0.00,Wunderground v.1.15,2013-01-23 12:48:00,
2013-01-23 06:53:00,17.8,11.8,30.36,ESE,105,4.0,-999.0,77,0.00,,,0.00,Wunderground v.1.15,2013-01-23 12:53:00,
2013-01-23 06:58:00,17.9,12.5,30.36,ESE,113,5.0,-999.0,79,0.00,,,0.00,Wunderground v.1.15,2013-01-23 12:58:00,
2013-01-23 07:03:00,17.9,11.6,30.36,ESE,108,5.0,-999.0,76,0.00,,,0.00,Wunderground v.1.15,2013-01-23 13:03:00,
2013-01-23 07:08:00,18.0,12.6,30.36,ESE,102,4.0,-999.0,79,0.00,,,0.00,Wunderground v.1.15,2013-01-23 13:08:00,
2013-01-23 07:13:00,18.0,12.3,30.35,ESE,115,5.0,-999.0,78,0.00,,,0.00,Wunderground v.1.15,2013-01-23 13:13:00,
2013-01-23 07:18:00,18.0,12.6,30.35,ESE,110,9.0,-999.0,79,0.00,,,0.00,Wunderground v.1.15,2013-01-23 13:18:00,
2013-01-23 07:23:00,18.1,13.0,30.36,ESE,117,6.0,-999.0,80,0.00,,,0.00,Wunderground v.1.15,2013-01-23 13:23:00,
2013-01-23 07:28:00,18.2,13.1,30.36,ESE,116,5.0,-999.0,80,0.00,,,0.00,Wunderground v.1.15,2013-01-23 13:28:00,
2013-01-23 07:33:00,18.2,13.1,30.36,ESE,115,6.0,-999.0,80,0.00,,,0.00,Wunderground v.1.15,2013-01-23 13:33:00,
2013-01-23 07:38:00,18.4,13.3,30.36,ESE,113,4.0,-999.0,80,0.00,,,0.00,Wunderground v.1.15,2013-01-23 13:38:00,
2013-01-23 07:43:00,18.7,13.3,30.35,ESE,103,5.0,-999.0,79,0.00,,,0.00,Wunderground v.1.15,2013-01-23 13:43:00,
2013-01-23 07:48:00,19.1,13.7,30.35,ESE,111,4.0,-999.0,79,0.00,,,0.00,Wunderground v.1.15,2013-01-23 13:48:00,
2013-01-23 07:53:00,19.5,13.5,30.35,ESE,112,6.0,-999.0,77,0.00,,,0.00,Wunderground v.1.15,2013-01-23 13:53:00,
2013-01-23 07:58:00,20.0,13.6,30.35,East,100,4.0,-999.0,76,0.00,,,0.00,Wunderground v.1.15,2013-01-23 13:58:00,
2013-01-23 08:03:00,20.5,13.8,30.35,East,97,5.0,-999.0,75,0.00,,,0.00,Wunderground v.1.15,2013-01-23 14:03:00,
2013-01-23 08:08:00,21.0,13.4,30.35,West,279,7.0,-999.0,72,0.00,,,0.00,Wunderground v.1.15,2013-01-23 14:08:00,
2013-01-23 08:13:00,21.5,13.5,30.35,West,279,7.0,-999.0,71,0.00,,,0.00,Wunderground v.1.15,2013-01-23 14:13:00,
2013-01-23 08:18:00,22.0,13.7,30.35,ESE,107,6.0,-999.0,70,0.00,,,0.00,Wunderground v.1.15,2013-01-23 14:18:00,
2013-01-23 08:23:00,22.5,13.9,30.35,ESE,115,7.0,-999.0,69,0.00,,,0.00,Wunderground v.1.15,2013-01-23 14:23:00,
2013-01-23 08:28:00,22.9,14.2,30.35,West,279,5.0,-999.0,69,0.00,,,0.00,Wunderground v.1.15,2013-01-23 14:28:00,
2013-01-23 08:33:00,23.4,14.0,30.34,West,279,4.0,-999.0,67,0.00,,,0.00,Wunderground v.1.15,2013-01-23 14:33:00,
2013-01-23 08:38:00,24.1,14.0,30.35,SE,130,10.0,-999.0,65,0.00,,,0.00,Wunderground v.1.15,2013-01-23 14:38:00,
2013-01-23 08:43:00,24.9,14.8,30.35,ESE,111,6.0,-999.0,65,0.00,,,0.00,Wunderground v.1.15,2013-01-23 14:43:00,
2013-01-23 08:48:00,25.7,14.8,30.35,ESE,122,8.0,-999.0,63,0.00,,,0.00,Wunderground v.1.15,2013-01-23 14:48:00,
2013-01-23 08:53:00,26.3,15.4,30.35,SE,132,7.0,-999.0,63,0.00,,,0.00,Wunderground v.1.15,2013-01-23 14:53:00,
2013-01-23 08:58:00,26.7,15.4,30.35,West,279,11.0,-999.0,62,0.00,,,0.00,Wunderground v.1.15,2013-01-23 14:58:00,
2013-01-23 09:03:00,27.2,15.9,30.35,West,279,4.0,-999.0,62,0.00,,,0.00,Wunderground v.1.15,2013-01-23 15:03:00,
2013-01-23 09:08:00,27.6,15.9,30.34,West,279,10.0,-999.0,61,0.00,,,0.00,Wunderground v.1.15,2013-01-23 15:08:00,
2013-01-23 09:13:00,28.0,15.9,30.35,West,279,8.0,-999.0,60,0.00,,,0.00,Wunderground v.1.15,2013-01-23 15:13:00,
2013-01-23 09:18:00,28.4,16.3,30.35,SE,126,6.0,-999.0,60,0.00,,,0.00,Wunderground v.1.15,2013-01-23 15:18:00,
2013-01-23 09:23:00,28.8,16.3,30.34,SE,130,7.0,-999.0,59,0.00,,,0.00,Wunderground v.1.15,2013-01-23 15:23:00,
2013-01-23 09:28:00,29.3,16.7,30.35,SE,126,6.0,-999.0,59,0.00,,,0.00,Wunderground v.1.15,2013-01-23 15:28:00,
2013-01-23 09:32:00,29.8,16.4,30.34,SE,141,6.0,-999.0,57,0.00,,,0.00,Wunderground v.1.15,2013-01-23 15:32:00,
2013-01-23 09:37:00,30.2,16.8,30.34,ESE,121,5.0,-999.0,57,0.00,,,0.00,Wunderground v.1.15,2013-01-23 15:37:00,
2013-01-23 09:42:00,30.7,16.8,30.35,West,279,0.0,-999.0,56,0.00,,,0.00,Wunderground v.1.15,2013-01-23 15:42:00,
2013-01-23 09:47:00,31.2,17.3,30.35,SE,132,5.0,-999.0,56,0.00,,,0.00,Wunderground v.1.15,2013-01-23 15:47:00,
2013-01-23 09:52:00,31.7,17.4,30.34,SE,136,4.0,-999.0,55,0.00,,,0.00,Wunderground v.1.15,2013-01-23 15:52:00,
2013-01-23 09:57:00,32.1,17.3,30.34,ESE,123,4.0,-999.0,54,0.00,,,0.00,Wunderground v.1.15,2013-01-23 15:57:00,
2013-01-23 10:02:00,32.4,18.0,30.34,West,279,5.0,-999.0,55,0.00,,,0.00,Wunderground v.1.15,2013-01-23 16:02:00,
2013-01-23 10:07:00,32.7,17.9,30.34,SE,140,3.0,-999.0,54,0.00,,,0.00,Wunderground v.1.15,2013-01-23 16:07:00,
2013-01-23 10:12:00,32.8,18.0,30.33,SE,134,4.0,-999.0,54,0.00,,,0.00,Wunderground v.1.15,2013-01-23 16:12:00,
2013-01-23 10:17:00,33.2,18.3,30.33,SSE,165,3.0,-999.0,54,0.00,,,0.00,Wunderground v.1.15,2013-01-23 16:17:00,
2013-01-23 10:22:00,33.6,18.7,30.33,West,279,6.0,-999.0,54,0.00,,,0.00,Wunderground v.1.15,2013-01-23 16:22:00,
2013-01-23 10:27:00,34.1,19.2,30.33,South,173,11.0,-999.0,54,0.00,,,0.00,Wunderground v.1.15,2013-01-23 16:27:00,
2013-01-23 10:32:00,34.6,19.2,30.32,SSE,148,10.0,-999.0,53,0.00,,,0.00,Wunderground v.1.15,2013-01-23 16:32:00,
2013-01-23 10:37:00,35.0,19.1,30.32,SSE,163,12.0,-999.0,52,0.00,,,0.00,Wunderground v.1.15,2013-01-23 16:37:00,
2013-01-23 10:42:00,35.3,19.4,30.32,West,279,11.0,-999.0,52,0.00,,,0.00,Wunderground v.1.15,2013-01-23 16:42:00,
2013-01-23 10:47:00,35.6,19.7,30.32,West,279,11.0,-999.0,52,0.00,,,0.00,Wunderground v.1.15,2013-01-23 16:47:00,
2013-01-23 10:52:00,35.8,19.9,30.32,South,179,9.0,-999.0,52,0.00,,,0.00,Wunderground v.1.15,2013-01-23 16:52:00,
2013-01-23 10:57:00,36.2,20.2,30.32,South,186,11.0,-999.0,52,0.00,,,0.00,Wunderground v.1.15,2013-01-23 16:57:00,
2013-01-23 11:02:00,36.5,20.5,30.31,South,177,10.0,-999.0,52,0.00,,,0.00,Wunderground v.1.15,2013-01-23 17:02:00,
2013-01-23 11:07:00,37.0,20.5,30.31,SSE,166,9.0,-999.0,51,0.00,,,0.00,Wunderground v.1.15,2013-01-23 17:07:00,
2013-01-23 11:12:00,37.2,20.7,30.30,South,173,9.0,-999.0,51,0.00,,,0.00,Wunderground v.1.15,2013-01-23 17:12:00,
2013-01-23 11:17:00,37.5,21.0,30.30,SSW,192,9.0,-999.0,51,0.00,,,0.00,Wunderground v.1.15,2013-01-23 17:17:00,
2013-01-23 11:22:00,37.9,21.4,30.30,South,181,13.0,-999.0,51,0.00,,,0.00,Wunderground v.1.15,2013-01-23 17:22:00,
2013-01-23 11:27:00,38.3,21.7,30.28,West,279,10.0,-999.0,51,0.00,,,0.00,Wunderground v.1.15,2013-01-23 17:27:00,
2013-01-23 11:32:00,38.9,21.8,30.28,South,172,9.0,-999.0,50,0.00,,,0.00,Wunderground v.1.15,2013-01-23 17:32:00,
2013-01-23 11:37:00,39.2,22.1,30.29,South,173,8.0,-999.0,50,0.00,,,0.00,Wunderground v.1.15,2013-01-23 17:37:00,
2013-01-23 11:42:00,39.6,22.0,30.27,South,191,14.0,-999.0,49,0.00,,,0.00,Wunderground v.1.15,2013-01-23 17:42:00,
2013-01-23 11:47:00,40.0,22.8,30.26,SSW,194,14.0,-999.0,50,0.00,,,0.00,Wunderground v.1.15,2013-01-23 17:47:00,
2013-01-23 11:52:00,40.3,23.1,30.26,SSW,207,11.0,-999.0,50,0.00,,,0.00,Wunderground v.1.15,2013-01-23 17:52:00,
2013-01-23 11:57:00,40.7,23.5,30.26,West,279,12.0,-999.0,50,0.00,,,0.00,Wunderground v.1.15,2013-01-23 17:57:00,
2013-01-23 12:02:00,41.0,24.2,30.26,SW,214,9.0,-999.0,51,0.00,,,0.00,Wunderground v.1.15,2013-01-23 18:02:00,
2013-01-23 12:07:00,41.2,23.5,30.26,West,279,10.0,-999.0,49,0.00,,,0.00,Wunderground v.1.15,2013-01-23 18:07:00,
2013-01-23 12:12:00,41.3,23.6,30.25,South,178,7.0,-999.0,49,0.00,,,0.00,Wunderground v.1.15,2013-01-23 18:12:00,
2013-01-23 12:17:00,41.4,24.1,30.25,West,279,17.0,-999.0,50,0.00,,,0.00,Wunderground v.1.15,2013-01-23 18:17:00,
2013-01-23 12:22:00,41.6,23.8,30.24,South,182,9.0,-999.0,49,0.00,,,0.00,Wunderground v.1.15,2013-01-23 18:22:00,
2013-01-23 12:27:00,41.7,24.4,30.25,SSW,192,9.0,-999.0,50,0.00,,,0.00,Wunderground v.1.15,2013-01-23 18:27:00,
2013-01-23 12:32:00,41.9,24.1,30.24,South,183,12.0,-999.0,49,0.00,,,0.00,Wunderground v.1.15,2013-01-23 18:32:00,
2013-01-23 12:37:00,42.2,24.9,30.24,West,279,12.0,-999.0,50,0.00,,,0.00,Wunderground v.1.15,2013-01-23 18:37:00,
2013-01-23 12:42:00,42.4,25.1,30.23,SSW,205,14.0,-999.0,50,0.00,,,0.00,Wunderground v.1.15,2013-01-23 18:42:00,
2013-01-23 12:47:00,42.4,24.6,30.23,SSW,200,12.0,-999.0,49,0.00,,,0.00,Wunderground v.1.15,2013-01-23 18:47:00,
2013-01-23 12:52:00,42.7,25.3,30.23,SSE,159,7.0,-999.0,50,0.00,,,0.00,Wunderground v.1.15,2013-01-23 18:52:00,
2013-01-23 12:57:00,43.0,25.6,30.24,SSW,199,13.0,-999.0,50,0.00,,,0.00,Wunderground v.1.15,2013-01-23 18:57:00,
2013-01-23 13:02:00,43.3,25.9,30.22,SW,219,12.0,-999.0,50,0.00,,,0.00,Wunderground v.1.15,2013-01-23 19:02:00,
2013-01-23 13:07:00,43.4,25.5,30.22,SSW,213,12.0,-999.0,49,0.00,,,0.00,Wunderground v.1.15,2013-01-23 19:07:00,
2013-01-23 13:12:00,43.8,25.9,30.21,SW,220,13.0,-999.0,49,0.00,,,0.00,Wunderground v.1.15,2013-01-23 19:12:00,
2013-01-23 13:17:00,44.0,26.0,30.22,SSW,198,12.0,-999.0,49,0.00,,,0.00,Wunderground v.1.15,2013-01-23 19:17:00,
2013-01-23 13:22:00,44.1,25.6,30.21,SSW,213,6.0,-999.0,48,0.00,,,0.00,Wunderground v.1.15,2013-01-23 19:22:00,
2013-01-23 13:27:00,44.5,26.5,30.20,West,279,5.0,-999.0,49,0.00,,,0.00,Wunderground v.1.15,2013-01-23 19:27:00,
2013-01-23 13:32:00,44.6,26.1,30.20,West,279,6.0,-999.0,48,0.00,,,0.00,Wunderground v.1.15,2013-01-23 19:32:00,
2013-01-23 13:37:00,44.9,25.9,30.20,SSE,148,14.0,-999.0,47,0.00,,,0.00,Wunderground v.1.15,2013-01-23 19:37:00,
2013-01-23 13:42:00,45.3,26.2,30.21,West,279,7.0,-999.0,47,0.00,,,0.00,Wunderground v.1.15,2013-01-23 19:42:00,
2013-01-23 13:47:00,45.6,26.5,30.20,SSW,205,12.0,-999.0,47,0.00,,,0.00,Wunderground v.1.15,2013-01-23 19:47:00,
2013-01-23 13:52:00,45.7,26.6,30.20,West,279,11.0,-999.0,47,0.00,,,0.00,Wunderground v.1.15,2013-01-23 19:52:00,
2013-01-23 13:57:00,45.9,27.8,30.19,South,188,9.0,-999.0,49,0.00,,,0.00,Wunderground v.1.15,2013-01-23 19:57:00,
2013-01-23 14:02:00,46.4,27.8,30.20,SSW,203,7.0,-999.0,48,0.00,,,0.00,Wunderground v.1.15,2013-01-23 20:02:00,
2013-01-23 14:07:00,46.7,28.0,30.21,South,175,14.0,-999.0,48,0.00,,,0.00,Wunderground v.1.15,2013-01-23 20:07:00,
2013-01-23 14:12:00,46.8,28.1,30.19,SSW,210,12.0,-999.0,48,0.00,,,0.00,Wunderground v.1.15,2013-01-23 20:12:00,
2013-01-23 14:17:00,47.0,27.8,30.19,South,189,9.0,-999.0,47,0.00,,,0.00,Wunderground v.1.15,2013-01-23 20:17:00,
2013-01-23 14:22:00,47.2,28.0,30.20,South,182,9.0,-999.0,47,0.00,,,0.00,Wunderground v.1.15,2013-01-23 20:22:00,
2013-01-23 14:27:00,47.2,28.0,30.19,South,180,10.0,-999.0,47,0.00,,,0.00,Wunderground v.1.15,2013-01-23 20:27:00,
2013-01-23 14:32:00,47.2,28.5,30.19,SSW,198,10.0,-999.0,48,0.00,,,0.00,Wunderground v.1.15,2013-01-23 20:32:00,
2013-01-23 14:37:00,47.3,28.6,30.20,SSE,168,8.0,-999.0,48,0.00,,,0.00,Wunderground v.1.15,2013-01-23 20:37:00,
2013-01-23 14:42:00,47.5,28.3,30.19,South,169,10.0,-999.0,47,0.00,,,0.00,Wunderground v.1.15,2013-01-23 20:42:00,
2013-01-23 14:47:00,47.6,28.9,30.19,South,180,3.0,-999.0,48,0.00,,,0.00,Wunderground v.1.15,2013-01-23 20:47:00,
2013-01-23 14:52:00,47.6,28.9,30.18,South,173,12.0,-999.0,48,0.00,,,0.00,Wunderground v.1.15,2013-01-23 20:52:00,
2013-01-23 14:57:00,47.6,28.9,30.17,SSW,196,12.0,-999.0,48,0.00,,,0.00,Wunderground v.1.15,2013-01-23 20:57:00,
2013-01-23 15:02:00,47.6,28.9,30.19,West,279,8.0,-999.0,48,0.00,,,0.00,Wunderground v.1.15,2013-01-23 21:02:00,
2013-01-23 15:07:00,47.3,29.1,30.18,SSW,196,12.0,-999.0,49,0.00,,,0.00,Wunderground v.1.15,2013-01-23 21:07:00,
2013-01-23 15:12:00,47.2,29.5,30.18,SE,138,8.0,-999.0,50,0.00,,,0.00,Wunderground v.1.15,2013-01-23 21:12:00,
2013-01-23 15:17:00,47.3,29.6,30.18,SSW,195,6.0,-999.0,50,0.00,,,0.00,Wunderground v.1.15,2013-01-23 21:17:00,
2013-01-23 15:22:00,47.6,29.9,30.18,South,185,14.0,-999.0,50,0.00,,,0.00,Wunderground v.1.15,2013-01-23 21:22:00,
2013-01-23 15:27:00,47.7,30.4,30.18,South,175,14.0,-999.0,51,0.00,,,0.00,Wunderground v.1.15,2013-01-23 21:27:00,
2013-01-23 15:32:00,47.7,30.0,30.17,South,169,12.0,-999.0,50,0.00,,,0.00,Wunderground v.1.15,2013-01-23 21:32:00,
2013-01-23 15:37:00,47.4,30.2,30.17,South,191,13.0,-999.0,51,0.00,,,0.00,Wunderground v.1.15,2013-01-23 21:37:00,
2013-01-23 15:42:00,47.2,30.5,30.19,South,185,16.0,-999.0,52,0.00,,,0.00,Wunderground v.1.15,2013-01-23 21:42:00,
2013-01-23 15:47:00,47.0,30.3,30.17,SSW,203,9.0,-999.0,52,0.00,,,0.00,Wunderground v.1.15,2013-01-23 21:47:00,
2013-01-23 15:52:00,46.8,30.6,30.18,West,279,10.0,-999.0,53,0.00,,,0.00,Wunderground v.1.15,2013-01-23 21:52:00,
2013-01-23 15:57:00,46.8,30.6,30.16,South,180,14.0,-999.0,53,0.00,,,0.00,Wunderground v.1.15,2013-01-23 21:57:00,
2013-01-23 16:02:00,46.8,31.0,30.17,South,169,9.0,-999.0,54,0.00,,,0.00,Wunderground v.1.15,2013-01-23 22:02:00,
2013-01-23 16:07:00,46.9,31.6,30.17,South,184,14.0,-999.0,55,0.00,,,0.00,Wunderground v.1.15,2013-01-23 22:07:00,
2013-01-23 16:12:00,46.9,31.1,30.16,SSW,192,14.0,-999.0,54,0.00,,,0.00,Wunderground v.1.15,2013-01-23 22:12:00,
2013-01-23 16:17:00,46.8,31.5,30.16,South,188,13.0,-999.0,55,0.00,,,0.00,Wunderground v.1.15,2013-01-23 22:17:00,
2013-01-23 16:22:00,46.6,31.3,30.16,SSW,197,9.0,-999.0,55,0.00,,,0.00,Wunderground v.1.15,2013-01-23 22:22:00,
2013-01-23 16:27:00,46.4,31.5,30.17,South,172,11.0,-999.0,56,0.00,,,0.00,Wunderground v.1.15,2013-01-23 22:27:00,
2013-01-23 16:32:00,46.4,31.5,30.16,South,189,14.0,-999.0,56,0.00,,,0.00,Wunderground v.1.15,2013-01-23 22:32:00,
2013-01-23 16:37:00,46.5,31.6,30.17,West,279,12.0,-999.0,56,0.00,,,0.00,Wunderground v.1.15,2013-01-23 22:37:00,
2013-01-23 16:42:00,46.6,31.7,30.15,SSW,198,13.0,-999.0,56,0.00,,,0.00,Wunderground v.1.15,2013-01-23 22:42:00,
2013-01-23 16:46:00,46.3,31.9,30.16,West,279,13.0,-999.0,57,0.00,,,0.00,Wunderground v.1.15,2013-01-23 22:46:00,
2013-01-23 16:51:00,46.1,31.7,30.17,West,279,15.0,-999.0,57,0.00,,,0.00,Wunderground v.1.15,2013-01-23 22:51:00,
2013-01-23 16:56:00,45.8,31.9,30.16,SSW,209,7.0,-999.0,58,0.00,,,0.00,Wunderground v.1.15,2013-01-23 22:56:00,
2013-01-23 17:01:00,45.5,31.6,30.17,SW,215,9.0,-999.0,58,0.00,,,0.00,Wunderground v.1.15,2013-01-23 23:01:00,
2013-01-23 17:06:00,45.1,31.6,30.17,SW,232,9.0,-999.0,59,0.00,,,0.00,Wunderground v.1.15,2013-01-23 23:06:00,
2013-01-23 17:11:00,44.7,31.2,30.18,SW,219,11.0,-999.0,59,0.00,,,0.00,Wunderground v.1.15,2013-01-23 23:11:00,
2013-01-23 17:16:00,44.3,31.3,30.16,SW,223,12.0,-999.0,60,0.00,,,0.00,Wunderground v.1.15,2013-01-23 23:16:00,
2013-01-23 17:21:00,44.0,31.4,30.17,SW,231,10.0,-999.0,61,0.00,,,0.00,Wunderground v.1.15,2013-01-23 23:21:00,
2013-01-23 17:26:00,43.6,31.4,30.16,WSW,244,11.0,-999.0,62,0.00,,,0.00,Wunderground v.1.15,2013-01-23 23:26:00,
2013-01-23 17:31:00,43.2,31.1,30.18,WSW,248,11.0,-999.0,62,0.00,,,0.00,Wunderground v.1.15,2013-01-23 23:31:00,
2013-01-23 17:36:00,42.8,31.1,30.17,WSW,238,10.0,-999.0,63,0.00,,,0.00,Wunderground v.1.15,2013-01-23 23:36:00,
2013-01-23 17:41:00,42.3,31.0,30.17,West,279,10.0,-999.0,64,0.00,,,0.00,Wunderground v.1.15,2013-01-23 23:41:00,
2013-01-23 17:46:00,42.1,30.8,30.17,SW,233,13.0,-999.0,64,0.00,,,0.00,Wunderground v.1.15,2013-01-23 23:46:00,
2013-01-23 17:51:00,41.7,30.8,30.18,WSW,246,11.0,-999.0,65,0.00,,,0.00,Wunderground v.1.15,2013-01-23 23:51:00,
2013-01-23 17:56:00,41.3,30.4,30.17,West,279,12.0,-999.0,65,0.00,,,0.00,Wunderground v.1.15,2013-01-23 23:56:00,
2013-01-23 18:01:00,40.9,30.8,30.17,West,279,13.0,-999.0,67,0.00,,,0.00,Wunderground v.1.15,2013-01-24 00:01:00,
2013-01-23 18:06:00,40.6,30.9,30.18,SW,226,12.0,-999.0,68,0.00,,,0.00,Wunderground v.1.15,2013-01-24 00:06:00,
2013-01-23 18:11:00,40.3,30.6,30.17,West,279,14.0,-999.0,68,0.00,,,0.00,Wunderground v.1.15,2013-01-24 00:11:00,
2013-01-23 18:16:00,40.1,30.7,30.17,WSW,238,12.0,-999.0,69,0.00,,,0.00,Wunderground v.1.15,2013-01-24 00:16:00,
2013-01-23 18:21:00,39.8,30.5,30.18,West,279,12.0,-999.0,69,0.00,,,0.00,Wunderground v.1.15,2013-01-24 00:21:00,
2013-01-23 18:26:00,39.5,30.5,30.18,WSW,251,11.0,-999.0,70,0.00,,,0.00,Wunderground v.1.15,2013-01-24 00:26:00,
2013-01-23 18:31:00,39.3,30.3,30.18,WSW,250,12.0,-999.0,70,0.00,,,0.00,Wunderground v.1.15,2013-01-24 00:31:00,
2013-01-23 18:36:00,39.0,30.0,30.18,WSW,240,13.0,-999.0,70,0.00,,,0.00,Wunderground v.1.15,2013-01-24 00:36:00,
2013-01-23 18:41:00,38.7,30.1,30.18,SW,230,14.0,-999.0,71,0.00,,,0.00,Wunderground v.1.15,2013-01-24 00:41:00,
2013-01-23 18:46:00,38.5,30.3,30.17,SW,229,13.0,-999.0,72,0.00,,,0.00,Wunderground v.1.15,2013-01-24 00:46:00,
2013-01-23 18:51:00,38.5,30.3,30.18,West,279,14.0,-999.0,72,0.00,,,0.00,Wunderground v.1.15,2013-01-24 00:51:00,
2013-01-23 18:56:00,38.4,30.2,30.18,SW,234,13.0,-999.0,72,0.00,,,0.00,Wunderground v.1.15,2013-01-24 00:56:00,
2013-01-23 19:01:00,38.3,30.1,30.19,SW,232,16.0,-999.0,72,0.00,,,0.00,Wunderground v.1.15,2013-01-24 01:01:00,
2013-01-23 19:06:00,38.3,30.1,30.18,SW,225,17.0,-999.0,72,0.00,,,0.00,Wunderground v.1.15,2013-01-24 01:06:00,
2013-01-23 19:11:00,38.3,30.1,30.18,SW,228,16.0,-999.0,72,0.00,,,0.00,Wunderground v.1.15,2013-01-24 01:11:00,
2013-01-23 19:16:00,38.3,30.1,30.19,SW,231,16.0,-999.0,72,0.00,,,0.00,Wunderground v.1.15,2013-01-24 01:16:00,
2013-01-23 19:21:00,38.2,30.0,30.18,SW,232,16.0,-999.0,72,0.00,,,0.00,Wunderground v.1.15,2013-01-24 01:21:00,
2013-01-23 19:26:00,38.2,30.0,30.19,WSW,240,16.0,-999.0,72,0.00,,,0.00,Wunderground v.1.15,2013-01-24 01:26:00,
2013-01-23 19:31:00,38.0,30.1,30.19,WSW,238,14.0,-999.0,73,0.00,,,0.00,Wunderground v.1.15,2013-01-24 01:31:00,
2013-01-23 19:36:00,37.8,29.9,30.19,SW,236,14.0,-999.0,73,0.00,,,0.00,Wunderground v.1.15,2013-01-24 01:36:00,
2013-01-23 19:41:00,37.8,30.3,30.20,WSW,244,13.0,-999.0,74,0.00,,,0.00,Wunderground v.1.15,2013-01-24 01:41:00,
2013-01-23 19:46:00,37.7,29.8,30.21,WSW,240,14.0,-999.0,73,0.00,,,0.00,Wunderground v.1.15,2013-01-24 01:46:00,
2013-01-23 19:51:00,37.5,30.0,30.19,WSW,240,13.0,-999.0,74,0.00,,,0.00,Wunderground v.1.15,2013-01-24 01:51:00,
2013-01-23 19:56:00,37.4,29.9,30.19,WSW,237,15.0,-999.0,74,0.00,,,0.00,Wunderground v.1.15,2013-01-24 01:56:00,
2013-01-23 20:01:00,37.4,29.9,30.20,West,279,15.0,-999.0,74,0.00,,,0.00,Wunderground v.1.15,2013-01-24 02:01:00,
2013-01-23 20:06:00,37.4,30.2,30.19,WSW,241,14.0,-999.0,75,0.00,,,0.00,Wunderground v.1.15,2013-01-24 02:06:00,
2013-01-23 20:11:00,37.3,29.8,30.20,WSW,240,14.0,-999.0,74,0.00,,,0.00,Wunderground v.1.15,2013-01-24 02:11:00,
2013-01-23 20:16:00,37.2,29.7,30.20,WSW,239,14.0,-999.0,74,0.00,,,0.00,Wunderground v.1.15,2013-01-24 02:16:00,
2013-01-23 20:21:00,37.0,29.8,30.19,WSW,238,14.0,-999.0,75,0.00,,,0.00,Wunderground v.1.15,2013-01-24 02:21:00,
2013-01-23 20:26:00,36.8,29.6,30.19,West,279,15.0,-999.0,75,0.00,,,0.00,Wunderground v.1.15,2013-01-24 02:26:00,
2013-01-23 20:31:00,36.7,29.5,30.20,SW,236,15.0,-999.0,75,0.00,,,0.00,Wunderground v.1.15,2013-01-24 02:31:00,
2013-01-23 20:36:00,36.6,29.4,30.19,West,279,15.0,-999.0,75,0.00,,,0.00,Wunderground v.1.15,2013-01-24 02:36:00,
2013-01-23 20:41:00,36.4,29.6,30.20,WSW,237,16.0,-999.0,76,0.00,,,0.00,Wunderground v.1.15,2013-01-24 02:41:00,
2013-01-23 20:46:00,36.2,29.4,30.20,SW,234,16.0,-999.0,76,0.00,,,0.00,Wunderground v.1.15,2013-01-24 02:46:00,
2013-01-23 20:51:00,36.2,29.7,30.20,SW,232,16.0,-999.0,77,0.00,,,0.00,Wunderground v.1.15,2013-01-24 02:51:00,
2013-01-23 20:56:00,36.2,29.7,30.21,SW,235,16.0,-999.0,77,0.00,,,0.00,Wunderground v.1.15,2013-01-24 02:56:00,
2013-01-23 21:01:00,36.1,29.6,30.22,SW,229,16.0,-999.0,77,0.00,,,0.00,Wunderground v.1.15,2013-01-24 03:01:00,
2013-01-23 21:06:00,36.1,29.6,30.21,SW,229,18.0,-999.0,77,0.00,,,0.00,Wunderground v.1.15,2013-01-24 03:06:00,
2013-01-23 21:11:00,36.0,29.5,30.21,SW,227,17.0,-999.0,77,0.00,,,0.00,Wunderground v.1.15,2013-01-24 03:11:00,
2013-01-23 21:16:00,36.0,29.5,30.21,SW,227,17.0,-999.0,77,0.00,,,0.00,Wunderground v.1.15,2013-01-24 03:16:00,
2013-01-23 21:21:00,35.6,28.8,30.21,SW,229,17.0,-999.0,76,0.00,,,0.00,Wunderground v.1.15,2013-01-24 03:21:00,
2013-01-23 21:26:00,35.2,29.0,30.22,West,279,17.0,-999.0,78,0.00,,,0.00,Wunderground v.1.15,2013-01-24 03:26:00,
2013-01-23 21:31:00,34.9,29.0,30.22,SW,228,17.0,-999.0,79,0.00,,,0.00,Wunderground v.1.15,2013-01-24 03:31:00,
2013-01-23 21:36:00,34.8,29.3,30.21,West,279,16.0,-999.0,80,0.00,,,0.00,Wunderground v.1.15,2013-01-24 03:36:00,
2013-01-23 21:41:00,34.5,28.3,30.21,SW,234,14.0,-999.0,78,0.00,,,0.00,Wunderground v.1.15,2013-01-24 03:41:00,
2013-01-23 21:46:00,34.0,28.2,30.21,West,279,16.0,-999.0,79,0.00,,,0.00,Wunderground v.1.15,2013-01-24 03:46:00,
2013-01-23 21:51:00,33.8,28.9,30.21,WSW,237,16.0,-999.0,82,0.00,,,0.00,Wunderground v.1.15,2013-01-24 03:51:00,
2013-01-23 21:56:00,33.7,28.2,30.22,WSW,242,17.0,-999.0,80,0.00,,,0.00,Wunderground v.1.15,2013-01-24 03:56:00,
2013-01-23 22:01:00,33.4,28.2,30.22,WSW,242,16.0,-999.0,81,0.00,,,0.00,Wunderground v.1.15,2013-01-24 04:01:00,
2013-01-23 22:06:00,32.9,28.0,30.22,West,279,15.0,-999.0,82,0.00,,,0.00,Wunderground v.1.15,2013-01-24 04:06:00,
2013-01-23 22:11:00,32.6,28.0,30.22,WSW,258,15.0,-999.0,83,0.00,,,0.00,Wunderground v.1.15,2013-01-24 04:11:00,
2013-01-23 22:16:00,32.4,27.8,30.23,West,270,16.0,-999.0,83,0.00,,,0.00,Wunderground v.1.15,2013-01-24 04:16:00,
2013-01-23 22:20:00,32.2,27.6,30.23,West,279,13.0,-999.0,83,0.00,,,0.00,Wunderground v.1.15,2013-01-24 04:20:00,
2013-01-23 22:25:00,32.1,27.8,30.24,WNW,288,13.0,-999.0,84,0.00,,,0.00,Wunderground v.1.15,2013-01-24 04:25:00,
2013-01-23 22:30:00,32.0,27.7,30.24,WNW,289,15.0,-999.0,84,0.00,,,0.00,Wunderground v.1.15,2013-01-24 04:30:00,
2013-01-23 22:35:00,32.0,27.7,30.23,WNW,284,15.0,-999.0,84,0.00,,,0.00,Wunderground v.1.15,2013-01-24 04:35:00,
2013-01-23 22:40:00,32.0,28.0,30.24,WNW,284,15.0,-999.0,85,0.00,,,0.00,Wunderground v.1.15,2013-01-24 04:40:00,
2013-01-23 22:45:00,32.1,28.1,30.24,WNW,288,14.0,-999.0,85,0.00,,,0.00,Wunderground v.1.15,2013-01-24 04:45:00,
2013-01-23 22:50:00,32.1,28.1,30.24,WNW,288,14.0,-999.0,85,0.00,,,0.00,Wunderground v.1.15,2013-01-24 04:50:00,
2013-01-23 22:55:00,32.1,27.8,30.24,WNW,288,14.0,-999.0,84,0.00,,,0.00,Wunderground v.1.15,2013-01-24 04:55:00,
2013-01-23 23:00:00,32.0,28.0,30.24,WNW,293,13.0,-999.0,85,0.00,,,0.00,Wunderground v.1.15,2013-01-24 05:00:00,
2013-01-23 23:02:00,32.0,28.0,30.24,WNW,301,14.0,-999.0,85,0.00,,,0.00,Wunderground v.1.15,2013-01-24 05:02:00,
2013-01-23 23:03:00,32.0,28.0,30.24,WNW,296,14.0,-999.0,85,0.00,,,0.00,Wunderground v.1.15,2013-01-24 05:03:00,
2013-01-23 23:08:00,31.9,27.9,30.25,WNW,298,13.0,-999.0,85,0.00,,,0.00,Wunderground v.1.15,2013-01-24 05:08:00,
2013-01-23 23:13:00,31.9,27.9,30.25,WNW,292,12.0,-999.0,85,0.00,,,0.00,Wunderground v.1.15,2013-01-24 05:13:00,
2013-01-23 23:18:00,31.7,27.7,30.25,WNW,293,12.0,-999.0,85,0.00,,,0.00,Wunderground v.1.15,2013-01-24 05:18:00,
2013-01-23 23:23:00,31.5,27.2,30.25,WNW,288,12.0,-999.0,84,0.00,,,0.00,Wunderground v.1.15,2013-01-24 05:23:00,
2013-01-23 23:28:00,31.3,27.6,30.25,WNW,290,12.0,-999.0,86,0.00,,,0.00,Wunderground v.1.15,2013-01-24 05:28:00,
2013-01-23 23:33:00,31.3,27.9,30.26,WNW,288,13.0,-999.0,87,0.00,,,0.00,Wunderground v.1.15,2013-01-24 05:33:00,
2013-01-23 23:38:00,31.2,27.8,30.26,WNW,292,14.0,-999.0,87,0.00,,,0.00,Wunderground v.1.15,2013-01-24 05:38:00,
2013-01-23 23:43:00,31.2,27.8,30.26,WNW,292,13.0,-999.0,87,0.00,,,0.00,Wunderground v.1.15,2013-01-24 05:43:00,
2013-01-23 23:48:00,31.2,28.1,30.26,WNW,300,14.0,-999.0,88,0.00,,,0.00,Wunderground v.1.15,2013-01-24 05:48:00,
2013-01-23 23:53:00,31.4,28.3,30.26,West,279,14.0,-999.0,88,0.00,,,0.00,Wunderground v.1.15,2013-01-24 05:53:00,
2013-01-23 23:58:00,31.7,28.3,30.26,NW,305,13.0,-999.0,87,0.00,,,0.00,Wunderground v.1.15,2013-01-24 05:58:00,